Погода в Кондопоге

Поиск расширенной информации на нашем сайте:

Полезная информация:

Новости сайта



02.01.2020
Опубликован Долгосрочный прогноз погоды по городам России и ближнего зарубежья на январь 2020 года.
Карты: Прогноз на январь и февраль 2020 года, Сравнение прогнозируемой аномалии приземной температуры воздуха на январь 2020 года по разным моделям.




Погода в Кондопоге - сегодня

Время (UTC), дата Ветер
(°,м/с) 
Видим.   Явления Облачность Т
(°С)
Тd
(°С)
f(%) Тe
(°С)
Pmin
(гПа)
dP
(гПа)
Po
(мм)
O2
(г/м3)
Тmin Tmax R s Состояние
почвы
00 29.11.20 100 (В) 20000 м    н/о 
-2.7 -4.1 90 -5  1035.8  0.2  773  315           
03 29.11.20 090 (В) 20000 м    н/о 
-2.5 -4.1 89 -4  1035.5  -0.3  773  315  -2.9         
06 29.11.20 100 (В) 20000 м  слаб. снег  10/10 210 м 
[Frnb|Ns]
-2.5 -4 89 -4  1035.3  -0.2  773  315  -2.9    0.0  неравномерный
мокрый или
старый снег
100% 
09 29.11.20 170 (Ю) 7000 м    н/о 
-1.6 -3 90 -4  1035.4  0.1  773  314           
12 29.11.20 200 (Ю) 8000 м    н/о 
-1.9 -3.9 86 -1  1034.9  -0.5  772  314           
15 29.11.20 110 (В) 20000 м    н/о 
-1.3 -2.6 91 -1  1034.2  -0.7  772  313         
18 29.11.20 140 (ЮВ) 21000 м    10/10 300 м 
[St]
+0 -2 86 -2  1032.9  -1.2  771  311    +0.1     
21 29.11.20 120 (ЮВ) 19000 м    н/о 
-0.1 -1.4 91 -1  1032  -0.9  770  311           
00 30.11.20 120 (ЮВ) 18000 м    н/о 
+0.6 -0.9 90 -2  1030.3  -1.7  769  309           
03 30.11.20 150 (ЮВ) 12000 м    н/о 
+0.4 -0.9 91 -2  1028.8  -1.5  768  309  -1.4         
06 30.11.20 150 (ЮВ) 11000 м  слаб. снег  10/10 270 м 
[Frnb|Ns]
+0.8 -0.9 88 -2  1027.6  -1.2  767  308  -0.7    0.0  неравномерный
мокрый или
старый снег
100% 
09 30.11.20 150 (ЮВ) 20000 м    н/о 
+1.1 -0.8 87 -1  1026.5  -1.1  766  308           
12 30.11.20 140 (ЮВ) 16000 м    н/о 
+1.2 -0.2 90 -1  1024.8  -1.7  765  307           
15 30.11.20 140 (ЮВ) 17000 м    н/о 
+1.3 +0.3 93 -1  1023.2  -1.6  764  306      0.8     
18 30.11.20 140 (ЮВ) 3000 м  дождь со снегом  10/10 240 м 
[Frnb|Ns]
+0.9 +0 94 -1  1021.2  -2  762  306    +1.5     
21 30.11.20 150 (ЮВ) 20000 м    н/о 
+1 -0.1 92 -1  1019.7  -1.4  761  306           
00 01.12.20 170 (Ю) 20000 м    н/о 
+0.8 -0.5 91 -1  1020  0.3  761  306           
03 01.12.20 160 (Ю) 20000 м    н/о 
+0.2 -2 85 -2  1020.3  0.2  762  307  +0.1       
06 01.12.20 160 (Ю) 25000 м    10/8 1380 м средняя 
[Sc|Ac trans]
-0.2 -2.6 84 -3  1020.6  0.3  762  307  -0.2    равномерный
мокрый или
старый снег
100% 
09 01.12.20 160 (Ю) 20000 м    н/о 
-0.2 -2.5 84 -3  1021  0.4  762  308           
12 01.12.20 170 (Ю) 20000 м    н/о 
+0.4 -1.6 86 -1  1021.3  0.3  762  307           
15 01.12.20 160 (Ю) 20000 м    н/о 
+0.8 -1.6 84 -2  1021.4  0.1  762  306           
21 01.12.20 220 (ЮЗ) 4{11}  17000 м    н/о 
+1.7 +0.5 92 1023  1.9  764  306           
00 02.12.20 230 (ЮЗ) 20000 м    н/о 
+1.5 +0.1 90 +1  1025.5  2.4  765  307           
03 02.12.20 210 (ЮЗ) 20000 м    н/о 
+1.1 -0.1 92 +2  1026.7  1.2  766  308  +0.6       
Время (UTC), дата Ветер
(°,м/с) 
Видим.   Явления Облачность Т
(°С)
Тd
(°С)
f(%) Тe
(°С)
Pmin
(гПа)
dP
(гПа)
Po
(мм)
O2
(г/м3)
Тmin Tmax R s Состояние
почвы

Для получения пояснительной информации подведите курсор к названию столбца.

ПОГОДА в Кондопоге - архив

Всё, что Вы хотите узнать о погоде в Кондопоге - удобно и подробно!

Выберите нужную дату (начиная с 1 января 2019* года) и нажмите кнопку "Найти".
Будут отображены архивные сводки погоды по пункту Кондопога, начиная с указанной даты.


Отображать данные в формате CSV (для использования в таблицах Excel)


Внимание! Наш архив погоды предназначен исключительно для личного некоммерческого использования в познавательных целях. Если Вам необходимы официальные справки о состоянии погоды (для производственных, юридических, коммерческих и т.п. целей), обращайтесь в органы Росгидромета.

*Примечание: данная дата относится к архиву по метеостанциям СССР (Россия, СНГ, Балтия).
Архив по метеостанциям Зарубежной Европы и Азии (кроме Китая) хранится 10 дней, по другим регионам земного шара (Китай, Африка, Америка, Австралия, Океания) - 1 день.

Кондопога - район местоположения метеостанции


Название, широта, долгота, высота метеостанции:
Кондопога 62.2°ш. 34.3°д. 38 м над ур. моря [Российская Федерация]

Дополнительная информация

В oтличие oт бoльшинства пoгoдных сайтoв мы публикуем пoдрoбную метеoинфoрмацию в детальнoм прoфессиoнальнoм фoрмате.

Характеристики температуры и влажнoсти вoздуха измеряются на высoте 2 м в тени вдали oт зданий и деревьев.
Скoрoсть ветра измеряется на высoте 10 м (на урoвне рoста челoвека скoрoсть ветра ниже в 1.5-2 раза). Если метеoстанция нахoдится в гoрoде или в лесу, тo скoрoсть ветра занижена на 2-4 м/с пo сравнению с oткрытым местoм. Скoрoсть ветра над акватoриями крупных рек и oзёр, а также на вершинах хoлмoв на 2-5 м/с выше, чем в oбычных услoвиях.
Атмoсфернoе давление в разных тoчках местнoсти мoжет значительнo oтличаться oт давления на метеoстанции, в зависимoсти oт услoвий рельефа (при пoдъёме на 10 м давление пoнижается примернo на 1 мм рт.ст.).